Location: Northcutt
(34.7304°N, 84.4305°W)
Time: 05:38:13
(UTC+00:00)

Vanguard 3 - Pass Details

Date: 12 October 2022
Orbit: 509 x 3255 km, 33.3° (Epoch: 30 November)

Event Time Altitude Azimuth Distance (km) Brightness Sun altitude
Exits shadow 09:01:19 14° 139° (SE) 1,935 9.3 -33.4°
Drops below altitude 10° 09:02:36 10° 123° (ESE) 2,062 9.7 -33.1°
Sets 09:05:27 0° 98° (E) 2,761 10.8 -32.5°
